Powrót do katalogu

OSCAR 15

UOSAT 4

AktywnyKrótkofalarstwoSSO
NORAD 20438·PAYLOAD·🇬🇧 United Kingdom

Wystrzelony Jan 22, 1990 z Guiana Space Centre

Loading…

Następne Przeloty (najbliższe 24 godziny)

TLE

ŚwieżeSource: Space-Track

Epoka: Sep 14, 2026, 15:42 UTC

1 20438U 90005C   26257.65470712  .00000026  00000-0  26640-4 0  9995
2 20438  98.7747 315.2950 0010901  89.6536  63.2915 14.31734713913029

Śledź OSCAR 15 w czasie rzeczywistym z AllMySat

Download on the App Store